Time,TemperatureF,DewpointF,PressureIn,WindDirection,WindDirectionDegrees,WindSpeedMPH,WindSpeedGustMPH,Humidity,HourlyPrecipIn,Conditions,Clouds,dailyrainin,SolarRadiationWatts/m^2,SoftwareType,DateUTC
2013-05-01 00:01:00,45.8,31.8,30.30,South,181,0.0,0.0,58,0.00,,,0.00,0,HR-IXPWINDi_r2_v1.2.,2013-05-01 04:01:00,
2013-05-01 00:06:00,45.7,32.6,30.30,South,181,0.0,0.0,60,0.00,,,0.00,0,HR-IXPWINDi_r2_v1.2.,2013-05-01 04:06:00,
2013-05-01 00:11:00,45.5,32.4,30.30,South,181,0.0,0.0,60,0.00,,,0.00,0,HR-IXPWINDi_r2_v1.2.,2013-05-01 04:11:00,
2013-05-01 00:16:00,45.2,32.9,30.30,South,181,0.0,0.0,62,0.00,,,0.00,0,HR-IXPWINDi_r2_v1.2.,2013-05-01 04:16:00,
2013-05-01 00:21:00,45.1,33.6,30.30,South,181,0.0,0.0,64,0.00,,,0.00,0,HR-IXPWINDi_r2_v1.2.,2013-05-01 04:21:00,
2013-05-01 00:27:00,44.8,32.9,30.30,South,181,0.0,0.0,63,0.00,,,0.00,0,HR-IXPWINDi_r2_v1.2.,2013-05-01 04:27:00,
2013-05-01 00:32:00,44.5,33.8,30.30,South,181,0.0,0.0,66,0.00,,,0.00,0,HR-IXPWINDi_r2_v1.2.,2013-05-01 04:32:00,
2013-05-01 00:37:00,44.2,33.9,30.31,South,181,0.0,0.0,67,0.00,,,0.00,0,HR-IXPWINDi_r2_v1.2.,2013-05-01 04:37:00,
2013-05-01 00:42:00,43.9,34.0,30.31,South,181,0.0,0.0,68,0.00,,,0.00,0,HR-IXPWINDi_r2_v1.2.,2013-05-01 04:42:00,
2013-05-01 00:47:00,43.6,33.7,30.31,South,181,0.0,0.0,68,0.00,,,0.00,0,HR-IXPWINDi_r2_v1.2.,2013-05-01 04:47:00,
2013-05-01 00:52:00,43.5,33.6,30.31,South,181,0.0,0.0,68,0.00,,,0.00,0,HR-IXPWINDi_r2_v1.2.,2013-05-01 04:52:00,
2013-05-01 00:58:00,43.3,32.7,30.31,South,181,0.0,0.0,66,0.00,,,0.00,0,HR-IXPWINDi_r2_v1.2.,2013-05-01 04:58:00,
2013-05-01 01:03:00,43.2,32.2,30.31,South,181,0.0,0.0,65,0.00,,,0.00,0,HR-IXPWINDi_r2_v1.2.,2013-05-01 05:03:00,
2013-05-01 01:08:00,43.1,32.9,30.31,South,181,0.0,0.0,67,0.00,,,0.00,0,HR-IXPWINDi_r2_v1.2.,2013-05-01 05:08:00,
2013-05-01 01:13:00,42.9,33.4,30.31,South,181,0.0,0.0,69,0.00,,,0.00,0,HR-IXPWINDi_r2_v1.2.,2013-05-01 05:13:00,
2013-05-01 01:18:00,42.6,33.1,30.31,South,181,0.0,0.0,69,0.00,,,0.00,0,HR-IXPWINDi_r2_v1.2.,2013-05-01 05:18:00,
2013-05-01 01:24:00,42.5,33.4,30.31,South,181,0.0,0.0,70,0.00,,,0.00,0,HR-IXPWINDi_r2_v1.2.,2013-05-01 05:24:00,
2013-05-01 01:29:00,42.3,33.2,30.31,South,181,0.0,0.0,70,0.00,,,0.00,0,HR-IXPWINDi_r2_v1.2.,2013-05-01 05:29:00,
2013-05-01 01:34:00,42.2,32.7,30.31,South,181,0.0,0.0,69,0.00,,,0.00,0,HR-IXPWINDi_r2_v1.2.,2013-05-01 05:34:00,
2013-05-01 01:39:00,42.1,32.6,30.32,South,181,0.0,0.0,69,0.00,,,0.00,0,HR-IXPWINDi_r2_v1.2.,2013-05-01 05:39:00,
2013-05-01 01:44:00,41.9,32.8,30.32,South,181,0.0,0.0,70,0.00,,,0.00,0,HR-IXPWINDi_r2_v1.2.,2013-05-01 05:44:00,
2013-05-01 01:49:00,41.8,33.1,30.32,South,181,0.0,0.0,71,0.00,,,0.00,0,HR-IXPWINDi_r2_v1.2.,2013-05-01 05:49:00,
2013-05-01 01:55:00,41.5,33.1,30.32,South,181,0.0,0.0,72,0.00,,,0.00,0,HR-IXPWINDi_r2_v1.2.,2013-05-01 05:55:00,
2013-05-01 02:00:00,41.2,32.5,30.32,South,181,0.0,0.0,71,0.00,,,0.00,0,HR-IXPWINDi_r2_v1.2.,2013-05-01 06:00:00,
2013-05-01 02:05:00,41.2,32.5,30.32,South,181,0.0,0.0,71,0.00,,,0.00,0,HR-IXPWINDi_r2_v1.2.,2013-05-01 06:05:00,
2013-05-01 02:10:00,41.1,32.4,30.32,South,181,0.0,0.0,71,0.00,,,0.00,0,HR-IXPWINDi_r2_v1.2.,2013-05-01 06:10:00,
2013-05-01 02:15:00,40.9,32.2,30.32,South,181,0.0,0.0,71,0.00,,,0.00,0,HR-IXPWINDi_r2_v1.2.,2013-05-01 06:15:00,
2013-05-01 02:20:00,41.1,32.4,30.31,South,181,0.0,0.0,71,0.00,,,0.00,0,HR-IXPWINDi_r2_v1.2.,2013-05-01 06:20:00,
2013-05-01 02:26:00,40.9,32.2,30.31,South,181,0.0,0.0,71,0.00,,,0.00,0,HR-IXPWINDi_r2_v1.2.,2013-05-01 06:26:00,
2013-05-01 02:31:00,40.8,32.4,30.31,South,181,0.0,0.0,72,0.00,,,0.00,0,HR-IXPWINDi_r2_v1.2.,2013-05-01 06:31:00,
2013-05-01 02:36:00,40.6,32.9,30.31,South,181,0.0,0.0,74,0.00,,,0.00,0,HR-IXPWINDi_r2_v1.2.,2013-05-01 06:36:00,
2013-05-01 02:41:00,40.3,32.6,30.31,South,181,0.0,0.0,74,0.00,,,0.00,0,HR-IXPWINDi_r2_v1.2.,2013-05-01 06:41:00,
2013-05-01 02:46:00,40.2,32.9,30.31,South,181,0.0,0.0,75,0.00,,,0.00,0,HR-IXPWINDi_r2_v1.2.,2013-05-01 06:46:00,
2013-05-01 02:52:00,39.9,32.6,30.32,South,181,0.0,0.0,75,0.00,,,0.00,0,HR-IXPWINDi_r2_v1.2.,2013-05-01 06:52:00,
2013-05-01 02:57:00,39.8,32.8,30.32,South,181,0.0,0.0,76,0.00,,,0.00,0,HR-IXPWINDi_r2_v1.2.,2013-05-01 06:57:00,
2013-05-01 03:02:00,39.6,32.6,30.32,South,181,0.0,0.0,76,0.00,,,0.00,0,HR-IXPWINDi_r2_v1.2.,2013-05-01 07:02:00,
2013-05-01 03:07:00,39.5,32.9,30.32,South,181,0.0,0.0,77,0.00,,,0.00,0,HR-IXPWINDi_r2_v1.2.,2013-05-01 07:07:00,
2013-05-01 03:12:00,39.3,32.3,30.32,South,181,0.0,0.0,76,0.00,,,0.00,0,HR-IXPWINDi_r2_v1.2.,2013-05-01 07:12:00,
2013-05-01 03:18:00,39.2,32.2,30.32,South,181,0.0,0.0,76,0.00,,,0.00,0,HR-IXPWINDi_r2_v1.2.,2013-05-01 07:18:00,
2013-05-01 03:23:00,39.1,32.1,30.32,South,181,0.0,0.0,76,0.00,,,0.00,0,HR-IXPWINDi_r2_v1.2.,2013-05-01 07:23:00,
2013-05-01 03:28:00,39.1,32.1,30.32,South,181,0.0,0.0,76,0.00,,,0.00,0,HR-IXPWINDi_r2_v1.2.,2013-05-01 07:28:00,
2013-05-01 03:33:00,38.9,31.6,30.32,South,181,0.0,0.0,75,0.00,,,0.00,0,HR-IXPWINDi_r2_v1.2.,2013-05-01 07:33:00,
2013-05-01 03:39:00,38.9,31.6,30.33,South,181,0.0,0.0,75,0.00,,,0.00,0,HR-IXPWINDi_r2_v1.2.,2013-05-01 07:39:00,
2013-05-01 03:44:00,39.1,31.8,30.33,South,181,0.0,0.0,75,0.00,,,0.00,0,HR-IXPWINDi_r2_v1.2.,2013-05-01 07:44:00,
2013-05-01 03:49:00,39.1,31.8,30.33,South,181,0.0,0.0,75,0.00,,,0.00,0,HR-IXPWINDi_r2_v1.2.,2013-05-01 07:49:00,
2013-05-01 03:54:00,39.2,31.9,30.33,South,181,0.0,0.0,75,0.00,,,0.00,0,HR-IXPWINDi_r2_v1.2.,2013-05-01 07:54:00,
2013-05-01 03:59:00,39.2,32.2,30.33,South,181,0.0,0.0,76,0.00,,,0.00,0,HR-IXPWINDi_r2_v1.2.,2013-05-01 07:59:00,
2013-05-01 04:05:00,39.1,32.1,30.33,South,181,0.0,0.0,76,0.00,,,0.00,0,HR-IXPWINDi_r2_v1.2.,2013-05-01 08:05:00,
2013-05-01 04:10:00,38.9,32.0,30.34,South,181,0.0,0.0,76,0.00,,,0.00,0,HR-IXPWINDi_r2_v1.2.,2013-05-01 08:10:00,
2013-05-01 04:15:00,38.9,32.0,30.34,South,181,0.0,0.0,76,0.00,,,0.00,0,HR-IXPWINDi_r2_v1.2.,2013-05-01 08:15:00,
2013-05-01 04:21:00,38.9,32.0,30.34,South,181,0.0,0.0,76,0.00,,,0.00,0,HR-IXPWINDi_r2_v1.2.,2013-05-01 08:21:00,
2013-05-01 04:26:00,38.9,32.3,30.34,South,181,0.0,0.0,77,0.00,,,0.00,0,HR-IXPWINDi_r2_v1.2.,2013-05-01 08:26:00,
2013-05-01 04:31:00,39.1,32.1,30.34,South,181,0.0,1.0,76,0.00,,,0.00,0,HR-IXPWINDi_r2_v1.2.,2013-05-01 08:31:00,
2013-05-01 04:36:00,38.9,32.3,30.34,South,181,0.0,1.0,77,0.00,,,0.00,0,HR-IXPWINDi_r2_v1.2.,2013-05-01 08:36:00,
2013-05-01 04:42:00,38.9,32.3,30.34,South,181,0.0,0.0,77,0.00,,,0.00,0,HR-IXPWINDi_r2_v1.2.,2013-05-01 08:42:00,
2013-05-01 04:47:00,38.9,32.3,30.34,South,181,0.0,0.0,77,0.00,,,0.00,0,HR-IXPWINDi_r2_v1.2.,2013-05-01 08:47:00,
2013-05-01 04:52:00,38.9,32.3,30.34,South,181,0.0,0.0,77,0.00,,,0.00,0,HR-IXPWINDi_r2_v1.2.,2013-05-01 08:52:00,
2013-05-01 04:57:00,38.9,32.6,30.34,South,181,0.0,0.0,78,0.00,,,0.00,0,HR-IXPWINDi_r2_v1.2.,2013-05-01 08:57:00,
2013-05-01 05:02:00,38.8,32.5,30.34,South,181,0.0,0.0,78,0.00,,,0.00,0,HR-IXPWINDi_r2_v1.2.,2013-05-01 09:02:00,
2013-05-01 05:08:00,38.5,32.2,30.34,South,181,0.0,0.0,78,0.00,,,0.00,0,HR-IXPWINDi_r2_v1.2.,2013-05-01 09:08:00,
2013-05-01 05:13:00,38.2,32.2,30.34,South,181,0.0,0.0,79,0.00,,,0.00,0,HR-IXPWINDi_r2_v1.2.,2013-05-01 09:13:00,
2013-05-01 05:18:00,38.0,32.0,30.34,South,181,0.0,0.0,79,0.00,,,0.00,0,HR-IXPWINDi_r2_v1.2.,2013-05-01 09:18:00,
2013-05-01 05:23:00,37.9,32.3,30.34,South,181,0.0,0.0,80,0.00,,,0.00,0,HR-IXPWINDi_r2_v1.2.,2013-05-01 09:23:00,
2013-05-01 05:28:00,37.6,32.0,30.34,South,181,0.0,0.0,80,0.00,,,0.00,0,HR-IXPWINDi_r2_v1.2.,2013-05-01 09:28:00,
2013-05-01 05:33:00,37.5,32.2,30.34,South,181,0.0,0.0,81,0.00,,,0.00,0,HR-IXPWINDi_r2_v1.2.,2013-05-01 09:33:00,
2013-05-01 05:39:00,37.5,32.2,30.35,South,181,0.0,0.0,81,0.00,,,0.00,0,HR-IXPWINDi_r2_v1.2.,2013-05-01 09:39:00,
2013-05-01 05:44:00,37.5,32.2,30.35,South,181,0.0,0.0,81,0.00,,,0.00,0,HR-IXPWINDi_r2_v1.2.,2013-05-01 09:44:00,
2013-05-01 05:49:00,37.5,32.2,30.35,South,181,0.0,0.0,81,0.00,,,0.00,0,HR-IXPWINDi_r2_v1.2.,2013-05-01 09:49:00,
2013-05-01 05:54:00,37.5,32.2,30.35,South,181,0.0,0.0,81,0.00,,,0.00,0,HR-IXPWINDi_r2_v1.2.,2013-05-01 09:54:00,
2013-05-01 05:59:00,37.3,32.0,30.35,South,181,0.0,0.0,81,0.00,,,0.00,0,HR-IXPWINDi_r2_v1.2.,2013-05-01 09:59:00,
2013-05-01 06:04:00,37.3,32.0,30.35,South,181,0.0,0.0,81,0.00,,,0.00,0,HR-IXPWINDi_r2_v1.2.,2013-05-01 10:04:00,
2013-05-01 06:09:00,37.3,32.3,30.36,South,181,0.0,0.0,82,0.00,,,0.00,5,HR-IXPWINDi_r2_v1.2.,2013-05-01 10:09:00,
2013-05-01 06:14:00,37.2,32.2,30.36,South,181,0.0,0.0,82,0.00,,,0.00,9,HR-IXPWINDi_r2_v1.2.,2013-05-01 10:14:00,
2013-05-01 06:20:00,37.2,32.2,30.36,South,181,0.0,0.0,82,0.00,,,0.00,12,HR-IXPWINDi_r2_v1.2.,2013-05-01 10:20:00,
2013-05-01 06:25:00,37.2,32.5,30.37,South,181,0.0,0.0,83,0.00,,,0.00,14,HR-IXPWINDi_r2_v1.2.,2013-05-01 10:25:00,
2013-05-01 06:30:00,37.2,32.5,30.37,South,181,0.0,0.0,83,0.00,,,0.00,18,HR-IXPWINDi_r2_v1.2.,2013-05-01 10:30:00,
2013-05-01 06:35:00,37.3,32.6,30.38,South,181,0.0,0.0,83,0.00,,,0.00,18,HR-IXPWINDi_r2_v1.2.,2013-05-01 10:35:00,
2013-05-01 06:40:00,37.5,32.8,30.38,South,181,0.0,0.0,83,0.00,,,0.00,19,HR-IXPWINDi_r2_v1.2.,2013-05-01 10:40:00,
2013-05-01 06:46:00,37.8,33.1,30.38,South,181,0.0,0.0,83,0.00,,,0.00,23,HR-IXPWINDi_r2_v1.2.,2013-05-01 10:46:00,
2013-05-01 06:51:00,38.2,33.5,30.39,South,181,0.0,0.0,83,0.00,,,0.00,25,HR-IXPWINDi_r2_v1.2.,2013-05-01 10:51:00,
2013-05-01 06:56:00,38.8,34.0,30.39,South,181,0.0,0.0,83,0.00,,,0.00,28,HR-IXPWINDi_r2_v1.2.,2013-05-01 10:56:00,
2013-05-01 07:01:00,39.5,34.4,30.39,South,181,0.0,0.0,82,0.00,,,0.00,28,HR-IXPWINDi_r2_v1.2.,2013-05-01 11:01:00,
2013-05-01 07:07:00,40.1,34.4,30.39,South,181,0.0,0.0,80,0.00,,,0.00,30,HR-IXPWINDi_r2_v1.2.,2013-05-01 11:07:00,
2013-05-01 07:12:00,40.6,34.6,30.39,South,181,0.0,0.0,79,0.00,,,0.00,37,HR-IXPWINDi_r2_v1.2.,2013-05-01 11:12:00,
2013-05-01 07:17:00,41.5,34.5,30.39,South,181,0.0,2.0,76,0.00,,,0.00,32,HR-IXPWINDi_r2_v1.2.,2013-05-01 11:17:00,
2013-05-01 07:22:00,42.5,34.4,30.39,South,181,1.0,2.0,73,0.00,,,0.00,32,HR-IXPWINDi_r2_v1.2.,2013-05-01 11:22:00,
2013-05-01 07:27:00,43.2,34.7,30.39,South,181,0.0,2.0,72,0.00,,,0.00,162,HR-IXPWINDi_r2_v1.2.,2013-05-01 11:27:00,
2013-05-01 07:32:00,43.9,34.4,30.39,South,181,0.0,2.0,69,0.00,,,0.00,44,HR-IXPWINDi_r2_v1.2.,2013-05-01 11:32:00,
2013-05-01 07:38:00,44.5,34.9,30.39,South,181,1.0,2.0,69,0.00,,,0.00,44,HR-IXPWINDi_r2_v1.2.,2013-05-01 11:38:00,
2013-05-01 07:43:00,45.1,34.4,30.39,South,181,2.0,2.0,66,0.00,,,0.00,67,HR-IXPWINDi_r2_v1.2.,2013-05-01 11:43:00,
2013-05-01 07:48:00,45.5,34.4,30.39,SSE,160,3.0,3.0,65,0.00,,,0.00,49,HR-IXPWINDi_r2_v1.2.,2013-05-01 11:48:00,
2013-05-01 07:53:00,46.1,33.8,30.39,East,92,1.0,3.0,62,0.00,,,0.00,141,HR-IXPWINDi_r2_v1.2.,2013-05-01 11:53:00,
2013-05-01 07:59:00,46.8,34.0,30.39,East,93,0.0,3.0,61,0.00,,,0.00,69,HR-IXPWINDi_r2_v1.2.,2013-05-01 11:59:00,
2013-05-01 08:04:00,47.6,33.5,30.39,East,93,0.0,2.0,58,0.00,,,0.00,130,HR-IXPWINDi_r2_v1.2.,2013-05-01 12:04:00,
2013-05-01 08:09:00,48.2,33.2,30.40,East,93,1.0,2.0,56,0.00,,,0.00,53,HR-IXPWINDi_r2_v1.2.,2013-05-01 12:09:00,
2013-05-01 08:14:00,48.9,32.5,30.40,East,92,1.0,2.0,53,0.00,,,0.00,48,HR-IXPWINDi_r2_v1.2.,2013-05-01 12:14:00,
2013-05-01 08:19:00,49.8,32.9,30.40,East,92,2.0,2.0,52,0.00,,,0.00,55,HR-IXPWINDi_r2_v1.2.,2013-05-01 12:19:00,
2013-05-01 08:24:00,50.2,31.7,30.40,East,92,2.0,3.0,49,0.00,,,0.00,44,HR-IXPWINDi_r2_v1.2.,2013-05-01 12:24:00,
2013-05-01 08:29:00,50.7,31.2,30.40,East,92,1.0,3.0,47,0.00,,,0.00,53,HR-IXPWINDi_r2_v1.2.,2013-05-01 12:29:00,
2013-05-01 08:35:00,51.3,30.7,30.40,East,90,0.0,2.0,45,0.00,,,0.00,51,HR-IXPWINDi_r2_v1.2.,2013-05-01 12:35:00,
2013-05-01 08:40:00,51.7,31.6,30.40,East,90,0.0,3.0,46,0.00,,,0.00,51,HR-IXPWINDi_r2_v1.2.,2013-05-01 12:40:00,
2013-05-01 08:45:00,52.3,31.6,30.40,East,90,2.0,3.0,45,0.00,,,0.00,55,HR-IXPWINDi_r2_v1.2.,2013-05-01 12:45:00,
2013-05-01 08:50:00,52.9,29.8,30.40,East,90,0.0,3.0,41,0.00,,,0.00,48,HR-IXPWINDi_r2_v1.2.,2013-05-01 12:50:00,
2013-05-01 08:55:00,53.5,30.4,30.40,East,90,0.0,3.0,41,0.00,,,0.00,49,HR-IXPWINDi_r2_v1.2.,2013-05-01 12:55:00,
2013-05-01 09:01:00,54.1,29.7,30.40,East,83,1.0,3.0,39,0.00,,,0.00,53,HR-IXPWINDi_r2_v1.2.,2013-05-01 13:01:00,
2013-05-01 09:06:00,54.4,29.9,30.40,East,89,1.0,2.0,39,0.00,,,0.00,51,HR-IXPWINDi_r2_v1.2.,2013-05-01 13:06:00,
2013-05-01 09:11:00,54.8,30.3,30.40,East,89,2.0,3.0,39,0.00,,,0.00,55,HR-IXPWINDi_r2_v1.2.,2013-05-01 13:11:00,
2013-05-01 09:16:00,55.3,29.5,30.40,East,89,1.0,3.0,37,0.00,,,0.00,169,HR-IXPWINDi_r2_v1.2.,2013-05-01 13:16:00,
2013-05-01 09:21:00,55.7,29.1,30.40,East,89,1.0,3.0,36,0.00,,,0.00,67,HR-IXPWINDi_r2_v1.2.,2013-05-01 13:21:00,
2013-05-01 09:26:00,56.2,28.2,30.40,East,80,0.0,3.0,34,0.00,,,0.00,90,HR-IXPWINDi_r2_v1.2.,2013-05-01 13:26:00,
2013-05-01 09:32:00,56.7,28.6,30.40,NE,48,2.0,3.0,34,0.00,,,0.00,134,HR-IXPWINDi_r2_v1.2.,2013-05-01 13:32:00,
2013-05-01 09:37:00,57.2,26.8,30.40,ENE,78,2.0,5.0,31,0.00,,,0.00,378,HR-IXPWINDi_r2_v1.2.,2013-05-01 13:37:00,
2013-05-01 09:42:00,57.6,27.2,30.40,ENE,73,1.0,5.0,31,0.00,,,0.00,209,HR-IXPWINDi_r2_v1.2.,2013-05-01 13:42:00,
2013-05-01 09:47:00,58.1,26.0,30.40,ENE,71,1.0,5.0,29,0.00,,,0.00,246,HR-IXPWINDi_r2_v1.2.,2013-05-01 13:47:00,
2013-05-01 09:52:00,58.4,26.3,30.41,North,4,0.0,5.0,29,0.00,,,0.00,174,HR-IXPWINDi_r2_v1.2.,2013-05-01 13:52:00,
2013-05-01 09:57:00,58.7,26.5,30.41,North,350,1.0,5.0,29,0.00,,,0.00,466,HR-IXPWINDi_r2_v1.2.,2013-05-01 13:57:00,
2013-05-01 10:03:00,59.5,27.2,30.41,NE,47,2.0,4.0,29,0.00,,,0.00,329,HR-IXPWINDi_r2_v1.2.,2013-05-01 14:03:00,
2013-05-01 10:08:00,60.1,26.9,30.40,NE,47,0.0,3.0,28,0.00,,,0.00,236,HR-IXPWINDi_r2_v1.2.,2013-05-01 14:08:00,
2013-05-01 10:13:00,60.9,26.7,30.40,ESE,123,0.0,6.0,27,0.00,,,0.00,220,HR-IXPWINDi_r2_v1.2.,2013-05-01 14:13:00,
2013-05-01 10:18:00,61.0,26.8,30.40,East,82,0.0,6.0,27,0.00,,,0.00,223,HR-IXPWINDi_r2_v1.2.,2013-05-01 14:18:00,
2013-05-01 10:23:00,61.0,25.9,30.40,ENE,61,2.0,4.0,26,0.00,,,0.00,227,HR-IXPWINDi_r2_v1.2.,2013-05-01 14:23:00,
2013-05-01 10:28:00,61.6,26.4,30.40,SSE,168,3.0,5.0,26,0.00,,,0.00,107,HR-IXPWINDi_r2_v1.2.,2013-05-01 14:28:00,
2013-05-01 10:34:00,62.1,25.9,30.40,SSE,162,1.0,7.0,25,0.00,,,0.00,179,HR-IXPWINDi_r2_v1.2.,2013-05-01 14:34:00,
2013-05-01 10:39:00,62.4,27.1,30.40,South,169,0.0,7.0,26,0.00,,,0.00,238,HR-IXPWINDi_r2_v1.2.,2013-05-01 14:39:00,
2013-05-01 10:44:00,62.4,27.1,30.40,SSE,157,2.0,6.0,26,0.00,,,0.00,121,HR-IXPWINDi_r2_v1.2.,2013-05-01 14:44:00,
2013-05-01 10:49:00,62.7,27.3,30.40,SSE,155,0.0,6.0,26,0.00,,,0.00,415,HR-IXPWINDi_r2_v1.2.,2013-05-01 14:49:00,
2013-05-01 10:55:00,62.9,25.5,30.40,ESE,121,2.0,6.0,24,0.00,,,0.00,257,HR-IXPWINDi_r2_v1.2.,2013-05-01 14:55:00,
2013-05-01 11:00:00,63.2,25.8,30.40,ESE,121,0.0,6.0,24,0.00,,,0.00,241,HR-IXPWINDi_r2_v1.2.,2013-05-01 15:00:00,
2013-05-01 11:05:00,63.4,26.0,30.40,SE,134,6.0,6.0,24,0.00,,,0.00,209,HR-IXPWINDi_r2_v1.2.,2013-05-01 15:05:00,
2013-05-01 11:10:00,63.5,25.0,30.40,NE,51,2.0,6.0,23,0.00,,,0.00,155,HR-IXPWINDi_r2_v1.2.,2013-05-01 15:10:00,
2013-05-01 11:15:00,63.5,27.0,30.40,SSW,192,2.0,6.0,25,0.00,,,0.00,230,HR-IXPWINDi_r2_v1.2.,2013-05-01 15:15:00,
2013-05-01 11:20:00,63.5,26.1,30.40,East,89,0.0,6.0,24,0.00,,,0.00,209,HR-IXPWINDi_r2_v1.2.,2013-05-01 15:20:00,
2013-05-01 11:26:00,63.5,26.1,30.40,NE,49,0.0,6.0,24,0.00,,,0.00,361,HR-IXPWINDi_r2_v1.2.,2013-05-01 15:26:00,
2013-05-01 11:31:00,64.0,27.5,30.40,SE,131,5.0,7.0,25,0.00,,,0.00,269,HR-IXPWINDi_r2_v1.2.,2013-05-01 15:31:00,
2013-05-01 11:36:00,64.2,26.6,30.40,SE,137,2.0,7.0,24,0.00,,,0.00,730,HR-IXPWINDi_r2_v1.2.,2013-05-01 15:36:00,
2013-05-01 11:41:00,64.5,27.9,30.40,SE,140,2.0,7.0,25,0.00,,,0.00,839,HR-IXPWINDi_r2_v1.2.,2013-05-01 15:41:00,
2013-05-01 11:46:00,64.5,25.9,30.40,NE,55,5.0,6.0,23,0.00,,,0.00,852,HR-IXPWINDi_r2_v1.2.,2013-05-01 15:46:00,
2013-05-01 11:52:00,63.9,26.4,30.39,NNE,28,2.0,6.0,24,0.00,,,0.00,299,HR-IXPWINDi_r2_v1.2.,2013-05-01 15:52:00,
2013-05-01 11:57:00,64.7,28.1,30.39,ESE,117,2.0,6.0,25,0.00,,,0.00,859,HR-IXPWINDi_r2_v1.2.,2013-05-01 15:57:00,
2013-05-01 12:02:00,64.8,28.1,30.39,ESE,102,3.0,6.0,25,0.00,,,0.00,424,HR-IXPWINDi_r2_v1.2.,2013-05-01 16:02:00,
2013-05-01 12:07:00,65.0,30.2,30.39,South,171,2.0,6.0,27,0.00,,,0.00,866,HR-IXPWINDi_r2_v1.2.,2013-05-01 16:07:00,
2013-05-01 12:13:00,65.8,30.9,30.39,SE,143,2.0,8.0,27,0.00,,,0.00,869,HR-IXPWINDi_r2_v1.2.,2013-05-01 16:13:00,
2013-05-01 12:18:00,65.3,32.2,30.39,SSE,164,3.0,8.0,29,0.00,,,0.00,871,HR-IXPWINDi_r2_v1.2.,2013-05-01 16:18:00,
2013-05-01 12:23:00,65.3,33.1,30.40,SSE,152,1.0,10.0,30,0.00,,,0.00,874,HR-IXPWINDi_r2_v1.2.,2013-05-01 16:23:00,
2013-05-01 12:28:00,65.3,33.9,30.40,SE,136,5.0,10.0,31,0.00,,,0.00,876,HR-IXPWINDi_r2_v1.2.,2013-05-01 16:28:00,
2013-05-01 12:34:00,65.0,33.6,30.40,SE,137,6.0,10.0,31,0.00,,,0.00,878,HR-IXPWINDi_r2_v1.2.,2013-05-01 16:34:00,
2013-05-01 12:39:00,64.5,34.7,30.40,ESE,123,2.0,7.0,33,0.00,,,0.00,882,HR-IXPWINDi_r2_v1.2.,2013-05-01 16:39:00,
2013-05-01 12:44:00,64.5,36.2,30.40,SE,127,2.0,7.0,35,0.00,,,0.00,882,HR-IXPWINDi_r2_v1.2.,2013-05-01 16:44:00,
2013-05-01 12:49:00,64.3,36.0,30.40,SE,131,2.0,7.0,35,0.00,,,0.00,883,HR-IXPWINDi_r2_v1.2.,2013-05-01 16:49:00,
2013-05-01 12:54:00,64.8,37.2,30.39,SSE,155,2.0,7.0,36,0.00,,,0.00,880,HR-IXPWINDi_r2_v1.2.,2013-05-01 16:54:00,
2013-05-01 13:00:00,65.0,36.7,30.39,South,178,1.0,7.0,35,0.00,,,0.00,882,HR-IXPWINDi_r2_v1.2.,2013-05-01 17:00:00,
2013-05-01 13:05:00,65.5,37.8,30.39,SSE,162,5.0,8.0,36,0.00,,,0.00,883,HR-IXPWINDi_r2_v1.2.,2013-05-01 17:05:00,
2013-05-01 13:10:00,64.8,37.2,30.39,NE,52,5.0,8.0,36,0.00,,,0.00,880,HR-IXPWINDi_r2_v1.2.,2013-05-01 17:10:00,
2013-05-01 13:15:00,64.2,36.7,30.39,SE,137,3.0,8.0,36,0.00,,,0.00,880,HR-IXPWINDi_r2_v1.2.,2013-05-01 17:15:00,
2013-05-01 13:20:00,64.8,37.9,30.39,SSE,158,6.0,8.0,37,0.00,,,0.00,878,HR-IXPWINDi_r2_v1.2.,2013-05-01 17:20:00,
2013-05-01 13:25:00,64.5,38.3,30.39,ESE,121,5.0,8.0,38,0.00,,,0.00,876,HR-IXPWINDi_r2_v1.2.,2013-05-01 17:25:00,
2013-05-01 13:31:00,65.0,37.4,30.39,SE,138,2.0,8.0,36,0.00,,,0.00,876,HR-IXPWINDi_r2_v1.2.,2013-05-01 17:31:00,
2013-05-01 13:36:00,65.0,37.4,30.39,SSE,147,3.0,7.0,36,0.00,,,0.00,871,HR-IXPWINDi_r2_v1.2.,2013-05-01 17:36:00,
2013-05-01 13:41:00,66.6,36.6,30.39,SSE,148,6.0,7.0,33,0.00,,,0.00,867,HR-IXPWINDi_r2_v1.2.,2013-05-01 17:41:00,
2013-05-01 13:46:00,65.5,37.1,30.39,SE,138,3.0,10.0,35,0.00,,,0.00,864,HR-IXPWINDi_r2_v1.2.,2013-05-01 17:46:00,
2013-05-01 13:52:00,64.8,37.9,30.39,SE,145,6.0,10.0,37,0.00,,,0.00,860,HR-IXPWINDi_r2_v1.2.,2013-05-01 17:52:00,
2013-05-01 13:57:00,65.5,37.1,30.39,SE,141,5.0,7.0,35,0.00,,,0.00,855,HR-IXPWINDi_r2_v1.2.,2013-05-01 17:57:00,
2013-05-01 14:02:00,65.6,36.4,30.39,SSE,154,2.0,7.0,34,0.00,,,0.00,850,HR-IXPWINDi_r2_v1.2.,2013-05-01 18:02:00,
2013-05-01 14:07:00,65.6,35.7,30.39,SSE,157,3.0,7.0,33,0.00,,,0.00,841,HR-IXPWINDi_r2_v1.2.,2013-05-01 18:07:00,
2013-05-01 14:12:00,65.2,36.1,30.39,SE,130,0.0,8.0,34,0.00,,,0.00,834,HR-IXPWINDi_r2_v1.2.,2013-05-01 18:12:00,
2013-05-01 14:18:00,65.3,36.2,30.39,SSE,157,5.0,8.0,34,0.00,,,0.00,823,HR-IXPWINDi_r2_v1.2.,2013-05-01 18:18:00,
2013-05-01 14:23:00,65.3,36.2,30.39,SE,140,6.0,8.0,34,0.00,,,0.00,822,HR-IXPWINDi_r2_v1.2.,2013-05-01 18:23:00,
2013-05-01 14:28:00,65.3,36.2,30.39,SE,128,1.0,8.0,34,0.00,,,0.00,815,HR-IXPWINDi_r2_v1.2.,2013-05-01 18:28:00,
2013-05-01 14:33:00,65.3,36.9,30.39,SSE,158,5.0,8.0,35,0.00,,,0.00,804,HR-IXPWINDi_r2_v1.2.,2013-05-01 18:33:00,
2013-05-01 14:39:00,66.0,36.8,30.39,East,99,3.0,7.0,34,0.00,,,0.00,799,HR-IXPWINDi_r2_v1.2.,2013-05-01 18:39:00,
2013-05-01 14:44:00,65.8,37.4,30.39,ESE,109,5.0,7.0,35,0.00,,,0.00,751,HR-IXPWINDi_r2_v1.2.,2013-05-01 18:44:00,
2013-05-01 14:49:00,65.5,36.4,30.39,SE,137,3.0,7.0,34,0.00,,,0.00,83,HR-IXPWINDi_r2_v1.2.,2013-05-01 18:49:00,
2013-05-01 14:54:00,65.6,37.2,30.39,SE,141,4.0,7.0,35,0.00,,,0.00,81,HR-IXPWINDi_r2_v1.2.,2013-05-01 18:54:00,
2013-05-01 15:00:00,65.2,36.1,30.39,SSE,151,5.0,8.0,34,0.00,,,0.00,116,HR-IXPWINDi_r2_v1.2.,2013-05-01 19:00:00,
2013-05-01 15:05:00,65.6,37.2,30.38,SSE,167,1.0,8.0,35,0.00,,,0.00,725,HR-IXPWINDi_r2_v1.2.,2013-05-01 19:05:00,
2013-05-01 15:10:00,65.8,36.6,30.38,SE,136,5.0,8.0,34,0.00,,,0.00,716,HR-IXPWINDi_r2_v1.2.,2013-05-01 19:10:00,
2013-05-01 15:15:00,65.6,37.2,30.38,ESE,123,2.0,8.0,35,0.00,,,0.00,278,HR-IXPWINDi_r2_v1.2.,2013-05-01 19:15:00,
2013-05-01 15:21:00,65.5,36.4,30.39,ESE,117,4.0,8.0,34,0.00,,,0.00,713,HR-IXPWINDi_r2_v1.2.,2013-05-01 19:21:00,
2013-05-01 15:26:00,65.3,35.4,30.39,SE,138,3.0,8.0,33,0.00,,,0.00,700,HR-IXPWINDi_r2_v1.2.,2013-05-01 19:26:00,
2013-05-01 15:31:00,65.3,35.4,30.39,SE,126,5.0,8.0,33,0.00,,,0.00,690,HR-IXPWINDi_r2_v1.2.,2013-05-01 19:31:00,
2013-05-01 15:36:00,66.1,35.4,30.38,South,186,0.0,8.0,32,0.00,,,0.00,679,HR-IXPWINDi_r2_v1.2.,2013-05-01 19:36:00,
2013-05-01 15:41:00,66.6,36.6,30.38,ESE,106,5.0,8.0,33,0.00,,,0.00,667,HR-IXPWINDi_r2_v1.2.,2013-05-01 19:41:00,
2013-05-01 15:47:00,66.3,35.5,30.38,East,89,3.0,7.0,32,0.00,,,0.00,651,HR-IXPWINDi_r2_v1.2.,2013-05-01 19:47:00,
2013-05-01 15:52:00,66.4,37.9,30.37,South,171,1.0,6.0,35,0.00,,,0.00,639,HR-IXPWINDi_r2_v1.2.,2013-05-01 19:52:00,
2013-05-01 15:57:00,66.4,36.4,30.37,SSE,147,5.0,7.0,33,0.00,,,0.00,625,HR-IXPWINDi_r2_v1.2.,2013-05-01 19:57:00,
2013-05-01 16:02:00,66.9,38.3,30.37,SSE,157,0.0,7.0,35,0.00,,,0.00,611,HR-IXPWINDi_r2_v1.2.,2013-05-01 20:02:00,
2013-05-01 16:07:00,66.9,38.3,30.37,SE,134,7.0,8.0,35,0.00,,,0.00,561,HR-IXPWINDi_r2_v1.2.,2013-05-01 20:07:00,
2013-05-01 16:12:00,65.6,37.9,30.37,SSE,148,2.0,8.0,36,0.00,,,0.00,521,HR-IXPWINDi_r2_v1.2.,2013-05-01 20:12:00,
2013-05-01 16:18:00,66.1,38.3,30.37,South,174,4.0,8.0,36,0.00,,,0.00,463,HR-IXPWINDi_r2_v1.2.,2013-05-01 20:18:00,
2013-05-01 16:23:00,65.6,38.6,30.38,SSE,154,2.0,7.0,37,0.00,,,0.00,70,HR-IXPWINDi_r2_v1.2.,2013-05-01 20:23:00,
2013-05-01 16:28:00,65.6,38.6,30.38,South,175,4.0,7.0,37,0.00,,,0.00,79,HR-IXPWINDi_r2_v1.2.,2013-05-01 20:28:00,
2013-05-01 16:33:00,65.2,38.9,30.38,SW,224,1.0,7.0,38,0.00,,,0.00,65,HR-IXPWINDi_r2_v1.2.,2013-05-01 20:33:00,
2013-05-01 16:38:00,65.3,39.0,30.37,SSE,154,7.0,7.0,38,0.00,,,0.00,74,HR-IXPWINDi_r2_v1.2.,2013-05-01 20:38:00,
2013-05-01 16:43:00,65.2,38.9,30.37,South,185,1.0,7.0,38,0.00,,,0.00,84,HR-IXPWINDi_r2_v1.2.,2013-05-01 20:43:00,
2013-05-01 16:49:00,65.0,38.7,30.37,South,179,2.0,7.0,38,0.00,,,0.00,91,HR-IXPWINDi_r2_v1.2.,2013-05-01 20:49:00,
2013-05-01 16:54:00,64.8,39.9,30.38,South,179,0.0,6.0,40,0.00,,,0.00,55,HR-IXPWINDi_r2_v1.2.,2013-05-01 20:54:00,
2013-05-01 16:59:00,64.7,40.4,30.38,SSE,160,1.0,5.0,41,0.00,,,0.00,74,HR-IXPWINDi_r2_v1.2.,2013-05-01 20:59:00,
2013-05-01 17:04:00,64.5,39.0,30.38,SSE,151,2.0,6.0,39,0.00,,,0.00,49,HR-IXPWINDi_r2_v1.2.,2013-05-01 21:04:00,
2013-05-01 17:09:00,64.3,40.1,30.38,SSE,157,2.0,6.0,41,0.00,,,0.00,69,HR-IXPWINDi_r2_v1.2.,2013-05-01 21:09:00,
2013-05-01 17:14:00,64.5,39.6,30.38,South,178,4.0,4.0,40,0.00,,,0.00,46,HR-IXPWINDi_r2_v1.2.,2013-05-01 21:14:00,
2013-05-01 17:20:00,64.3,38.1,30.38,SSE,157,3.0,5.0,38,0.00,,,0.00,60,HR-IXPWINDi_r2_v1.2.,2013-05-01 21:20:00,
2013-05-01 17:25:00,64.2,37.4,30.38,SSE,157,0.0,5.0,37,0.00,,,0.00,113,HR-IXPWINDi_r2_v1.2.,2013-05-01 21:25:00,
2013-05-01 17:30:00,64.0,39.2,30.38,South,175,0.0,5.0,40,0.00,,,0.00,37,HR-IXPWINDi_r2_v1.2.,2013-05-01 21:30:00,
2013-05-01 17:35:00,63.9,39.1,30.38,SSE,167,2.0,8.0,40,0.00,,,0.00,35,HR-IXPWINDi_r2_v1.2.,2013-05-01 21:35:00,
2013-05-01 17:40:00,63.9,39.7,30.38,SSE,158,1.0,8.0,41,0.00,,,0.00,33,HR-IXPWINDi_r2_v1.2.,2013-05-01 21:40:00,
2013-05-01 17:46:00,63.7,40.7,30.38,SSE,158,2.0,8.0,43,0.00,,,0.00,26,HR-IXPWINDi_r2_v1.2.,2013-05-01 21:46:00,
2013-05-01 17:51:00,63.7,41.3,30.38,SSE,158,4.0,5.0,44,0.00,,,0.00,25,HR-IXPWINDi_r2_v1.2.,2013-05-01 21:51:00,
2013-05-01 17:56:00,63.7,40.1,30.38,SSE,164,0.0,6.0,42,0.00,,,0.00,26,HR-IXPWINDi_r2_v1.2.,2013-05-01 21:56:00,
2013-05-01 18:01:00,63.7,40.7,30.38,SSE,165,0.0,6.0,43,0.00,,,0.00,19,HR-IXPWINDi_r2_v1.2.,2013-05-01 22:01:00,
2013-05-01 18:06:00,63.5,41.2,30.38,South,181,0.0,3.0,44,0.00,,,0.00,19,HR-IXPWINDi_r2_v1.2.,2013-05-01 22:06:00,
2013-05-01 18:11:00,63.2,40.9,30.38,South,176,2.0,5.0,44,0.00,,,0.00,18,HR-IXPWINDi_r2_v1.2.,2013-05-01 22:11:00,
2013-05-01 18:16:00,63.2,42.0,30.38,South,176,2.0,5.0,46,0.00,,,0.00,16,HR-IXPWINDi_r2_v1.2.,2013-05-01 22:16:00,
2013-05-01 18:22:00,63.2,42.6,30.39,South,171,2.0,4.0,47,0.00,,,0.00,14,HR-IXPWINDi_r2_v1.2.,2013-05-01 22:22:00,
2013-05-01 18:27:00,63.1,42.5,30.39,South,172,0.0,4.0,47,0.00,,,0.00,14,HR-IXPWINDi_r2_v1.2.,2013-05-01 22:27:00,
2013-05-01 18:32:00,62.9,42.3,30.39,South,171,2.0,3.0,47,0.00,,,0.00,12,HR-IXPWINDi_r2_v1.2.,2013-05-01 22:32:00,
2013-05-01 18:37:00,62.7,42.7,30.39,South,171,0.0,3.0,48,0.00,,,0.00,12,HR-IXPWINDi_r2_v1.2.,2013-05-01 22:37:00,
2013-05-01 18:43:00,62.7,42.7,30.39,South,184,0.0,3.0,48,0.00,,,0.00,11,HR-IXPWINDi_r2_v1.2.,2013-05-01 22:43:00,
2013-05-01 18:48:00,62.6,42.6,30.39,South,181,3.0,4.0,48,0.00,,,0.00,11,HR-IXPWINDi_r2_v1.2.,2013-05-01 22:48:00,
2013-05-01 18:53:00,62.4,42.4,30.40,South,176,0.0,4.0,48,0.00,,,0.00,11,HR-IXPWINDi_r2_v1.2.,2013-05-01 22:53:00,
2013-05-01 18:58:00,62.3,42.3,30.40,South,176,0.0,4.0,48,0.00,,,0.00,9,HR-IXPWINDi_r2_v1.2.,2013-05-01 22:58:00,
2013-05-01 19:03:00,62.3,42.3,30.40,South,176,0.0,3.0,48,0.00,,,0.00,9,HR-IXPWINDi_r2_v1.2.,2013-05-01 23:03:00,
2013-05-01 19:08:00,62.3,42.9,30.40,South,176,2.0,3.0,49,0.00,,,0.00,7,HR-IXPWINDi_r2_v1.2.,2013-05-01 23:08:00,
2013-05-01 19:14:00,62.1,42.7,30.40,South,176,0.0,3.0,49,0.00,,,0.00,7,HR-IXPWINDi_r2_v1.2.,2013-05-01 23:14:00,
2013-05-01 19:19:00,62.3,43.9,30.40,South,174,2.0,4.0,51,0.00,,,0.00,7,HR-IXPWINDi_r2_v1.2.,2013-05-01 23:19:00,
2013-05-01 19:24:00,62.0,43.1,30.40,SSE,168,2.0,5.0,50,0.00,,,0.00,5,HR-IXPWINDi_r2_v1.2.,2013-05-01 23:24:00,
2013-05-01 19:29:00,61.6,43.3,30.40,South,169,1.0,5.0,51,0.00,,,0.00,5,HR-IXPWINDi_r2_v1.2.,2013-05-01 23:29:00,
2013-05-01 19:34:00,61.5,43.2,30.40,South,169,0.0,3.0,51,0.00,,,0.00,0,HR-IXPWINDi_r2_v1.2.,2013-05-01 23:34:00,
2013-05-01 19:39:00,61.0,43.2,30.40,South,169,2.0,2.0,52,0.00,,,0.00,0,HR-IXPWINDi_r2_v1.2.,2013-05-01 23:39:00,
2013-05-01 19:45:00,60.5,43.2,30.40,South,169,2.0,3.0,53,0.00,,,0.00,0,HR-IXPWINDi_r2_v1.2.,2013-05-01 23:45:00,
2013-05-01 19:50:00,60.1,43.4,30.40,South,169,1.0,3.0,54,0.00,,,0.00,0,HR-IXPWINDi_r2_v1.2.,2013-05-01 23:50:00,
2013-05-01 19:55:00,59.8,43.6,30.40,SSE,168,2.0,3.0,55,0.00,,,0.00,0,HR-IXPWINDi_r2_v1.2.,2013-05-01 23:55:00,
2013-05-01 20:00:00,59.5,43.7,30.40,SSE,168,0.0,3.0,56,0.00,,,0.00,0,HR-IXPWINDi_r2_v1.2.,2013-05-02 00:00:00,
2013-05-01 20:05:00,59.3,43.6,30.41,SSE,168,1.0,2.0,56,0.00,,,0.00,0,HR-IXPWINDi_r2_v1.2.,2013-05-02 00:05:00,
2013-05-01 20:11:00,59.0,43.7,30.41,SSE,168,0.0,2.0,57,0.00,,,0.00,0,HR-IXPWINDi_r2_v1.2.,2013-05-02 00:11:00,
2013-05-01 20:16:00,58.9,44.1,30.41,SSE,168,1.0,3.0,58,0.00,,,0.00,0,HR-IXPWINDi_r2_v1.2.,2013-05-02 00:16:00,
2013-05-01 20:21:00,58.6,43.8,30.41,SSE,168,0.0,3.0,58,0.00,,,0.00,0,HR-IXPWINDi_r2_v1.2.,2013-05-02 00:21:00,
2013-05-01 20:26:00,58.3,43.5,30.41,SSE,168,0.0,2.0,58,0.00,,,0.00,0,HR-IXPWINDi_r2_v1.2.,2013-05-02 00:26:00,
2013-05-01 20:31:00,58.1,43.8,30.41,SSE,168,0.0,2.0,59,0.00,,,0.00,0,HR-IXPWINDi_r2_v1.2.,2013-05-02 00:31:00,
2013-05-01 20:36:00,57.8,44.0,30.42,SSE,168,1.0,2.0,60,0.00,,,0.00,0,HR-IXPWINDi_r2_v1.2.,2013-05-02 00:36:00,
2013-05-01 20:42:00,57.5,43.7,30.42,SSE,168,0.0,2.0,60,0.00,,,0.00,0,HR-IXPWINDi_r2_v1.2.,2013-05-02 00:42:00,
2013-05-01 20:47:00,57.3,43.9,30.42,SSE,168,0.0,2.0,61,0.00,,,0.00,0,HR-IXPWINDi_r2_v1.2.,2013-05-02 00:47:00,
2013-05-01 20:52:00,57.2,43.8,30.42,SSE,168,0.0,2.0,61,0.00,,,0.00,0,HR-IXPWINDi_r2_v1.2.,2013-05-02 00:52:00,
2013-05-01 20:57:00,57.0,43.6,30.42,SSE,168,0.0,0.0,61,0.00,,,0.00,0,HR-IXPWINDi_r2_v1.2.,2013-05-02 00:57:00,
2013-05-01 21:02:00,56.6,43.7,30.42,SSE,168,0.0,0.0,62,0.00,,,0.00,0,HR-IXPWINDi_r2_v1.2.,2013-05-02 01:02:00,
2013-05-01 21:08:00,56.3,43.8,30.43,SSE,168,0.0,0.0,63,0.00,,,0.00,0,HR-IXPWINDi_r2_v1.2.,2013-05-02 01:08:00,
2013-05-01 21:13:00,56.0,43.9,30.43,SSE,168,0.0,0.0,64,0.00,,,0.00,0,HR-IXPWINDi_r2_v1.2.,2013-05-02 01:13:00,
2013-05-01 21:18:00,55.9,43.9,30.43,SSE,168,0.0,1.0,64,0.00,,,0.00,0,HR-IXPWINDi_r2_v1.2.,2013-05-02 01:18:00,
2013-05-01 21:23:00,55.7,44.1,30.43,SSE,168,0.0,1.0,65,0.00,,,0.00,0,HR-IXPWINDi_r2_v1.2.,2013-05-02 01:23:00,
2013-05-01 21:28:00,55.6,44.0,30.43,SSE,168,0.0,1.0,65,0.00,,,0.00,0,HR-IXPWINDi_r2_v1.2.,2013-05-02 01:28:00,
2013-05-01 21:33:00,55.3,43.7,30.43,SSE,168,0.0,0.0,65,0.00,,,0.00,0,HR-IXPWINDi_r2_v1.2.,2013-05-02 01:33:00,
2013-05-01 21:38:00,55.0,43.8,30.44,SSE,168,0.0,0.0,66,0.00,,,0.00,0,HR-IXPWINDi_r2_v1.2.,2013-05-02 01:38:00,
2013-05-01 21:43:00,54.7,43.9,30.44,SSE,168,0.0,0.0,67,0.00,,,0.00,0,HR-IXPWINDi_r2_v1.2.,2013-05-02 01:43:00,
2013-05-01 21:49:00,54.4,44.0,30.44,SSE,168,0.0,0.0,68,0.00,,,0.00,0,HR-IXPWINDi_r2_v1.2.,2013-05-02 01:49:00,
2013-05-01 21:54:00,53.9,43.9,30.44,SSE,168,0.0,0.0,69,0.00,,,0.00,0,HR-IXPWINDi_r2_v1.2.,2013-05-02 01:54:00,
2013-05-01 21:59:00,53.5,43.9,30.44,SSE,168,0.0,0.0,70,0.00,,,0.00,0,HR-IXPWINDi_r2_v1.2.,2013-05-02 01:59:00,
2013-05-01 22:04:00,53.1,43.5,30.44,SSE,168,0.0,0.0,70,0.00,,,0.00,0,HR-IXPWINDi_r2_v1.2.,2013-05-02 02:04:00,
2013-05-01 22:09:00,52.8,43.6,30.44,SSE,168,0.0,0.0,71,0.00,,,0.00,0,HR-IXPWINDi_r2_v1.2.,2013-05-02 02:09:00,
2013-05-01 22:15:00,52.6,43.4,30.44,SSE,168,0.0,0.0,71,0.00,,,0.00,0,HR-IXPWINDi_r2_v1.2.,2013-05-02 02:15:00,
2013-05-01 22:20:00,52.5,43.7,30.44,SSE,168,0.0,0.0,72,0.00,,,0.00,0,HR-IXPWINDi_r2_v1.2.,2013-05-02 02:20:00,
2013-05-01 22:25:00,52.3,43.5,30.44,SSE,168,0.0,0.0,72,0.00,,,0.00,0,HR-IXPWINDi_r2_v1.2.,2013-05-02 02:25:00,
2013-05-01 22:30:00,52.0,43.2,30.44,SSE,168,0.0,0.0,72,0.00,,,0.00,0,HR-IXPWINDi_r2_v1.2.,2013-05-02 02:30:00,
2013-05-01 22:36:00,51.7,43.3,30.44,SSE,168,0.0,0.0,73,0.00,,,0.00,0,HR-IXPWINDi_r2_v1.2.,2013-05-02 02:36:00,
2013-05-01 22:41:00,51.4,43.3,30.44,SSE,168,0.0,0.0,74,0.00,,,0.00,0,HR-IXPWINDi_r2_v1.2.,2013-05-02 02:41:00,
2013-05-01 22:46:00,51.3,43.2,30.44,SSE,168,0.0,0.0,74,0.00,,,0.00,0,HR-IXPWINDi_r2_v1.2.,2013-05-02 02:46:00,
2013-05-01 22:51:00,51.1,43.1,30.44,SSE,168,0.0,0.0,74,0.00,,,0.00,0,HR-IXPWINDi_r2_v1.2.,2013-05-02 02:51:00,
2013-05-01 22:56:00,50.8,42.8,30.44,SSE,168,0.0,0.0,74,0.00,,,0.00,0,HR-IXPWINDi_r2_v1.2.,2013-05-02 02:56:00,
2013-05-01 23:01:00,50.7,43.0,30.44,SSE,168,0.0,0.0,75,0.00,,,0.00,0,HR-IXPWINDi_r2_v1.2.,2013-05-02 03:01:00,
2013-05-01 23:06:00,50.4,42.7,30.44,SSE,168,0.0,0.0,75,0.00,,,0.00,0,HR-IXPWINDi_r2_v1.2.,2013-05-02 03:06:00,
2013-05-01 23:12:00,50.2,42.9,30.44,SSE,168,0.0,0.0,76,0.00,,,0.00,0,HR-IXPWINDi_r2_v1.2.,2013-05-02 03:12:00,
2013-05-01 23:17:00,49.9,42.6,30.44,SSE,168,0.0,0.0,76,0.00,,,0.00,0,HR-IXPWINDi_r2_v1.2.,2013-05-02 03:17:00,
2013-05-01 23:22:00,49.6,42.6,30.44,SSE,168,0.0,0.0,77,0.00,,,0.00,0,HR-IXPWINDi_r2_v1.2.,2013-05-02 03:22:00,
2013-05-01 23:28:00,49.5,42.9,30.44,SSE,168,0.0,0.0,78,0.00,,,0.00,0,HR-IXPWINDi_r2_v1.2.,2013-05-02 03:28:00,
2013-05-01 23:33:00,49.4,42.8,30.44,SSE,168,0.0,0.0,78,0.00,,,0.00,0,HR-IXPWINDi_r2_v1.2.,2013-05-02 03:33:00,
2013-05-01 23:38:00,49.1,42.8,30.44,SSE,168,0.0,0.0,79,0.00,,,0.00,0,HR-IXPWINDi_r2_v1.2.,2013-05-02 03:38:00,
2013-05-01 23:43:00,48.8,42.5,30.44,SSE,168,0.0,0.0,79,0.00,,,0.00,0,HR-IXPWINDi_r2_v1.2.,2013-05-02 03:43:00,
2013-05-01 23:48:00,48.6,42.7,30.44,SSE,168,0.0,0.0,80,0.00,,,0.00,0,HR-IXPWINDi_r2_v1.2.,2013-05-02 03:48:00,
2013-05-01 23:54:00,48.5,42.6,30.44,SSE,168,0.0,0.0,80,0.00,,,0.00,0,HR-IXPWINDi_r2_v1.2.,2013-05-02 03:54:00,
2013-05-01 23:59:00,48.2,42.6,30.44,SSE,168,0.0,0.0,81,0.00,,,0.00,0,HR-IXPWINDi_r2_v1.2.,2013-05-02 03:59:00,